Wetbulb
50.78 50.59 50.75 50.93 50.72 49.44 45.72 40.61 36.56 48.36 46.20 38.19 35.16 32.99 37.65 40.28 39.12 42.07 39.21 39.14 35.82 34.85 34.22 35.13 33.95 32.78 34.46 38.08 38.71 32.72 34.39 30.27 31.34 37.72 43.09 43.81 42.81 38.47 36.90 33.09 32.73 33.97 32.45 34.48
50.70 50.51 50.49 50.82 50.50 49.59 41.92 39.06 36.82 45.71 43.83 32.42 31.83 35.33 37.82 39.34 37.65 37.26 37.75 35.64 36.74 36.30 32.05 29.35 33.92 33.73 38.43 38.40 36.26 32.82 33.05 26.11 23.47 30.63 36.30 37.39 33.59 36.10 35.79 37.29 35.99 33.43 31.99 37.12
50.70 50.43 50.29 50.58 50.31 49.45 42.01 36.94 33.21 36.85 36.45 34.45 33.56 30.94 33.56 34.86 40.25 38.06 37.79 35.85 36.19 33.08 31.02 31.88 30.01 32.26 37.35 38.54 37.55 41.64 34.97 27.09 29.88 24.47 29.51 33.17 29.83 32.86 34.14 35.33 31.39 34.00 35.45 38.71
50.81 50.71 50.53 50.53 50.02 49.01 42.13 35.70 32.87 33.67 28.30 31.29 32.74 33.42 33.59 33.28 33.14 36.56 36.57 34.08 34.12 31.25 27.13 29.44 29.58 33.01 34.16 36.57 38.44 33.71 29.89 22.32 27.09 28.75 31.02 31.33 29.90 29.80 31.04 32.17 34.62 33.75 36.84 38.70
50.88 50.76 50.64 50.58 49.96 48.40 40.49 35.24 33.35 32.98 30.35 32.42 33.42 33.13 30.83 33.56 34.48 34.59 33.10 32.17 34.72 32.87 28.11 30.01 28.16 31.19 29.21 29.33 31.69 28.55 28.01 22.98 27.37 25.85 30.53 30.45 29.84 31.40 33.17 33.69 35.66 39.70 39.53 39.53
50.65 50.72 50.91 50.72 50.20 46.77 38.86 38.35 37.95 34.09 32.82 31.49 31.00 31.35 33.66 34.73 35.22 36.95 37.70 35.33 32.74 31.49 33.43 35.67 35.53 34.46 33.21 32.32 28.75 26.90 25.81 24.80 24.02 22.72 29.53 28.66 23.42 28.64 31.70 34.11 42.23 41.06 35.77 39.70
50.37 50.77 50.93 50.87 50.57 47.63 40.58 39.19 37.24 33.78 30.10 32.74 33.12 36.44 36.62 35.29 35.78 32.75 36.67 36.07 31.83 36.41 40.00 36.92 33.92 31.10 31.92 32.65 31.67 30.71 27.84 28.02 27.09 19.87 24.21 15.47 27.88 36.03 37.57 36.53 40.60 42.75 42.66 43.73
50.35 50.63 51.05 51.10 50.90 50.54 42.93 40.52 37.93 34.11 30.18 33.80 35.85 36.59 35.09 34.97 34.98 34.43 35.49 37.37 37.66 37.45 33.55 28.21 25.08 25.05 26.89 30.72 33.90 32.33 33.34 32.95 27.95 16.96 18.77 25.36 29.50 35.18 34.72 34.29 34.90 40.88 41.81 43.93
50.09 50.68 51.05 51.12 50.92 50.57 42.41 41.60 39.54 36.08 31.51 33.10 38.47 34.89 35.23 31.08 31.01 32.20 34.54 38.19 37.39 34.58 28.93 26.51 21.87 19.57 25.42 24.70 28.33 33.60 34.05 35.05 31.21 26.23 19.68 17.23 31.41 37.05 39.88 39.27 29.34 40.86 41.72 42.44
49.87 50.32 50.80 50.74 50.78 50.70 43.04 41.81 40.55 37.83 33.10 36.14 36.53 34.33 33.71 35.78 32.35 29.64 32.46 34.55 34.31 33.52 26.84 24.93 22.48 22.52 27.99 22.59 23.51 26.30 25.94 29.64 27.07 26.78 25.57 28.02 36.38 38.43 40.20 29.10 28.40 40.12 41.51 42.15
49.52 50.32 50.55 50.67 50.58 50.49 43.61 41.42 41.98 39.28 34.48 36.01 40.64 41.63 36.36 35.43 34.04 28.89 33.48 30.55 32.78 31.22 25.00 25.25 24.41 24.00 24.79 24.21 27.15 27.24 25.17 24.90 23.94 25.65 24.48 22.38 38.80 38.34 32.32 37.16 40.55 41.05 41.50 43.61
49.28 50.01 50.47 50.53 50.33 49.94 45.43 40.79 43.14 42.81 37.75 37.17 40.17 40.86 42.21 42.83 40.61 35.59 33.02 33.61 31.91 34.75 30.87 26.49 27.58 24.23 24.97 24.17 20.86 30.87 24.59 31.30 29.59 31.08 29.01 36.54 39.08 39.12 41.09 40.61 39.71 40.26 41.89 45.13
49.27 49.76 50.45 50.54 49.92 49.62 46.12 40.09 40.42 38.82 36.30 37.52 38.49 39.08 43.00 43.81 42.20 40.99 33.90 35.19 40.61 38.85 39.57 34.86 31.62 27.16 28.68 25.15 26.35 30.06 32.66 36.83 32.49 31.47 33.93 36.42 36.93 39.62 40.72 41.69 41.68 43.62 45.58 44.65
49.58 49.94 50.22 50.36 49.69 49.50 46.78 41.08 41.50 38.68 35.67 32.39 35.39 43.34 41.31 44.63 43.65 42.06 40.36 40.21 38.32 40.44 38.56 34.10 32.10 29.98 35.18 32.34 33.95 32.56 34.72 34.78 33.99 32.05 36.09 36.92 38.22 37.27 44.27 42.89 41.34 42.70 42.66 41.68
48.98 49.44 49.84 50.08 49.65 49.67 43.03 40.89 42.36 40.89 35.24 29.89 32.59 37.72 42.16 42.70 41.71 39.35 38.31 35.78 33.12 33.66 32.99 33.09 32.05 36.10 35.20 34.34 34.69 32.68 36.05 34.37 32.78 31.39 36.06 33.79 34.46 40.01 42.30 42.48 42.26 42.56 41.63 41.18
48.69 49.27 49.59 49.77 49.81 47.97 43.45 37.31 42.16 42.17 39.84 32.88 31.22 36.73 39.63 40.82 41.16 39.65 37.22 35.78 36.57 33.59 34.20 32.64 35.00 38.56 36.28 30.47 29.90 35.77 38.67 39.35 38.33 37.27 36.64 35.98 39.45 41.54 42.61 41.63 41.59 42.05 41.90 42.04
49.02 49.23 49.39 49.58 49.12 42.30 37.48 36.19 40.42 45.44 41.07 34.72 31.42 32.47 38.69 41.21 39.36 39.00 38.80 37.12 35.35 36.82 34.80 35.28 35.85 36.82 37.15 32.37 21.61 36.80 38.58 39.26 38.52 39.09 38.71 37.13 39.49 39.06 41.44 41.31 41.58 42.12 40.93 41.30
49.37 49.94 49.78 49.78 48.14 46.05 42.30 42.69 46.31 44.00 40.09 36.97 30.69 31.19 34.56 39.61 34.23 33.53 38.22 36.57 35.81 36.31 35.73 38.01 36.83 37.55 37.15 25.83 36.46 37.27 39.10 39.00 38.78 38.56 40.38 39.71 40.80 40.03 39.34 39.92 39.80 38.58 38.50 39.41
49.91 49.61 49.03 44.56 42.62 39.92 42.64 50.18 46.35 42.71 39.49 32.81 31.37 24.38 25.97 37.56 33.29 33.54 35.55 37.76 33.17 37.27 32.91 36.17 36.32 32.94 32.03 37.44 39.07 39.91 39.49 37.47 37.74 38.51 38.13 38.58 37.78 37.73 39.13 37.97 37.57 38.03 37.60 38.93
49.27 45.53 42.38 37.55 41.04 49.36 47.96 43.71 40.36 39.84 40.31 38.69 32.54 32.36 27.16 33.18 31.88 32.60 32.48 35.71 35.94 30.39 31.81 35.14 32.76 32.76 40.94 42.01 42.39 43.55 42.58 38.66 38.56 35.91 34.54 36.27 36.38 36.77 37.70 38.07 38.21 38.13 38.19 39.30
39.07 37.00 37.69 40.43 47.33 42.24 40.97 37.25 36.12 35.84 33.23 34.91 33.38 31.97 30.79 35.83 33.99 31.30 33.93 32.11 35.70 28.63 33.30 31.12 32.35 32.87 36.70 40.64 43.86 44.62 44.63 40.81 38.76 38.26 38.15 37.66 37.64 38.01 38.46 39.16 39.65 39.49 40.44 40.54
39.88 40.67 41.84 41.63 40.78 36.91 33.71 31.02 34.39 31.60 29.78 35.26 31.76 32.36 34.13 34.98 39.44 35.44 35.76 34.40 36.18 33.11 38.82 34.17 30.62 33.74 38.10 43.31 44.88 45.69 45.50 43.25 40.97 41.56 39.74 39.29 40.01 41.18 41.43 41.31 41.15 40.42 40.48 40.47
43.57 42.13 39.09 36.86 36.59 28.68 30.20 27.69 27.40 27.71 32.60 33.90 37.25 34.80 33.62 35.34 36.23 34.32 34.90 32.69 32.61 39.28 32.84 30.51 32.90 38.15 42.45 43.46 46.03 45.34 46.83 47.13 45.70 41.56 42.24 42.79 42.74 43.74 43.31 42.33 42.89 43.44 41.49 40.33
41.30 37.92 28.69 30.91 29.41 32.64 34.51 31.12 34.77 37.25 33.89 35.27 37.77 37.20 34.31 35.12 34.82 35.57 32.39 36.13 35.45 28.73 29.63 30.48 36.12 39.70 42.41 44.01 46.44 46.82 46.25 47.12 46.80 46.81 43.61 41.15 41.53 42.51 44.50 44.18 43.34 42.29 40.59 39.86
38.61 37.74 28.08 33.56 39.55 39.60 39.71 38.04 38.18 38.84 39.59 38.85 37.88 39.03 38.63 37.11 34.45 33.97 32.26 30.91 30.05 31.25 31.22 35.67 38.04 40.57 41.30 40.60 41.44 45.12 45.82 46.73 46.80 47.82 46.03 43.79 44.03 43.95 43.71 43.36 42.88 41.60 40.86 40.27
40.62 38.52 34.27 35.84 37.40 37.71 39.21 39.52 39.14 42.19 41.27 41.29 40.66 38.16 33.03 33.17 30.69 31.49 30.71 29.07 29.53 33.02 34.84 37.26 39.50 39.19 39.49 38.90 39.89 42.86 47.26 46.41 47.10 47.03 47.51 47.67 45.19 44.78 43.54 41.65 40.50 40.36 40.31 40.04
39.18 36.34 37.49 38.70 39.97 38.98 36.95 37.08 40.35 43.13 41.49 38.28 38.15 30.82 29.67 32.47 28.39 30.42 33.80 32.35 35.73 35.43 37.54 38.52 38.02 36.64 37.70 37.69 39.18 44.50 45.91 46.48 47.38 47.87 47.83 47.30 47.26 45.49 44.31 42.20 40.94 39.00 39.60 40.01
MSLP
1020.72 1019.36 1017.75 1016.33 1015.19 1013.71 1012.73 1014.09 1015.32 1013.44 1012.17 1014.49 1017.30 1019.05 1019.23 1019.41 1019.38 1018.85 1019.35 1019.75 1020.35 1020.76 1020.79 1020.78 1020.95 1021.50 1021.58 1021.58 1021.11 1021.05 1020.67 1019.27 1016.91 1014.13 1011.93 1011.51 1011.39 1012.47 1012.75 1012.77 1011.50 1010.27 1008.76 1005.88
1021.37 1020.03 1018.50 1016.84 1015.47 1014.89 1014.83 1016.51 1016.90 1014.51 1013.61 1017.74 1020.00 1020.58 1020.66 1020.64 1020.48 1020.46 1020.70 1021.33 1021.61 1021.81 1022.28 1022.16 1022.28 1022.47 1022.03 1022.03 1021.89 1021.47 1021.29 1020.51 1018.73 1015.26 1013.78 1013.77 1014.44 1015.14 1015.37 1014.79 1013.73 1011.71 1010.23 1006.82
1022.02 1020.74 1018.99 1017.55 1016.05 1015.00 1015.18 1017.65 1019.16 1019.01 1018.77 1020.54 1021.00 1021.52 1022.01 1021.65 1021.57 1021.81 1021.97 1022.31 1022.44 1022.79 1023.24 1023.31 1023.34 1023.17 1022.63 1022.37 1022.17 1021.85 1022.01 1022.21 1021.65 1019.95 1018.74 1018.30 1016.92 1016.54 1016.78 1016.50 1015.37 1012.91 1011.07 1009.02
1022.73 1021.69 1020.31 1018.45 1016.69 1015.27 1015.64 1019.32 1022.17 1022.36 1023.04 1023.08 1022.64 1022.53 1023.34 1022.94 1022.74 1022.97 1022.96 1023.36 1023.61 1023.80 1024.34 1024.32 1024.14 1023.78 1023.29 1022.83 1022.31 1022.41 1022.91 1023.00 1022.44 1021.34 1020.39 1019.65 1018.72 1017.38 1016.72 1016.13 1015.09 1014.07 1010.91 1010.49
1023.80 1022.77 1021.61 1019.99 1018.12 1016.62 1017.78 1021.25 1022.69 1023.40 1024.04 1024.10 1023.82 1023.88 1024.71 1024.26 1023.89 1023.96 1024.29 1024.65 1024.51 1024.51 1024.88 1025.05 1024.74 1024.35 1023.94 1023.59 1023.13 1023.11 1023.49 1023.42 1022.85 1021.53 1020.58 1019.48 1018.17 1017.70 1016.55 1015.19 1013.98 1012.61 1011.43 1010.61
1024.77 1023.92 1022.94 1021.96 1020.53 1018.73 1020.86 1022.51 1022.91 1023.29 1025.29 1025.15 1025.03 1025.44 1025.32 1025.14 1024.66 1024.96 1025.09 1025.08 1024.83 1024.75 1024.63 1024.57 1024.17 1023.97 1023.89 1023.86 1023.98 1023.92 1024.13 1024.20 1023.74 1021.47 1020.53 1019.67 1018.39 1016.88 1015.91 1014.53 1013.24 1012.60 1012.02 1011.47
1025.82 1025.10 1024.17 1023.17 1022.42 1022.05 1022.54 1023.73 1023.90 1024.72 1026.45 1025.88 1026.01 1025.95 1025.77 1025.75 1025.58 1025.48 1025.47 1025.31 1025.19 1024.80 1024.11 1023.91 1023.65 1023.83 1023.80 1023.52 1023.47 1023.87 1024.19 1024.14 1023.72 1022.32 1021.22 1019.98 1017.54 1016.91 1016.23 1015.10 1013.64 1013.07 1012.73 1011.92
1026.47 1025.77 1025.02 1024.26 1023.64 1023.22 1023.34 1023.95 1024.45 1025.57 1026.84 1026.77 1026.55 1026.27 1026.11 1025.99 1026.09 1025.92 1025.72 1025.81 1025.65 1025.02 1024.95 1025.09 1025.21 1024.94 1024.69 1023.95 1023.49 1023.75 1023.48 1023.82 1023.54 1023.11 1021.82 1019.62 1018.14 1017.96 1017.47 1016.66 1015.17 1014.24 1013.35 1012.19
1026.98 1026.50 1025.99 1025.31 1024.58 1023.97 1024.17 1024.72 1024.89 1025.59 1026.59 1027.08 1026.44 1026.29 1026.33 1026.65 1026.85 1026.55 1026.36 1026.03 1025.83 1025.64 1026.34 1026.63 1027.15 1026.89 1026.33 1025.47 1024.40 1023.44 1023.33 1023.28 1023.65 1022.66 1021.92 1020.30 1019.25 1018.76 1018.12 1017.47 1016.03 1015.16 1014.53 1013.42
1027.79 1027.17 1026.55 1026.01 1025.45 1024.91 1024.77 1025.26 1025.32 1025.68 1026.78 1026.73 1026.25 1026.21 1026.51 1026.73 1027.27 1027.66 1027.43 1027.26 1026.93 1026.88 1027.51 1028.07 1028.40 1028.00 1027.33 1026.74 1025.85 1024.13 1023.64 1023.39 1023.09 1022.30 1021.49 1020.47 1019.69 1019.12 1017.86 1017.01 1017.44 1015.74 1015.21 1014.23
1028.11 1027.67 1027.17 1026.63 1026.13 1025.55 1025.34 1025.91 1025.72 1025.88 1026.57 1026.78 1026.27 1026.11 1026.25 1026.55 1027.00 1027.93 1027.86 1028.12 1027.97 1028.22 1028.72 1029.14 1029.34 1029.09 1028.35 1027.77 1026.47 1025.41 1024.88 1024.29 1023.43 1022.66 1021.85 1020.71 1019.66 1018.79 1018.61 1018.02 1016.83 1016.15 1015.52 1014.83
1028.69 1028.10 1027.54 1027.11 1026.70 1026.19 1025.89 1026.44 1026.10 1026.06 1026.44 1027.09 1026.59 1026.08 1025.87 1025.93 1026.33 1027.37 1028.33 1028.81 1028.97 1029.04 1029.21 1029.59 1029.77 1029.71 1029.04 1028.39 1027.29 1025.65 1025.31 1025.09 1024.47 1023.93 1022.99 1021.47 1020.84 1019.84 1018.61 1017.77 1016.79 1015.61 1015.37 1014.58
1028.81 1028.35 1027.94 1027.58 1027.12 1026.81 1026.71 1027.06 1027.11 1026.66 1027.43 1027.47 1026.98 1026.68 1026.28 1026.15 1026.57 1027.08 1028.20 1028.74 1028.61 1028.87 1029.05 1029.63 1029.94 1029.91 1029.58 1028.72 1027.53 1026.68 1025.28 1024.94 1024.71 1024.23 1022.65 1022.15 1020.89 1019.62 1017.44 1016.60 1016.77 1015.39 1014.29 1015.35
1028.99 1028.55 1028.17 1027.78 1027.47 1027.26 1027.13 1027.65 1027.59 1027.64 1028.44 1028.75 1028.25 1027.13 1026.80 1026.86 1027.03 1027.53 1027.87 1028.41 1028.83 1029.14 1029.50 1029.91 1029.98 1029.85 1029.41 1028.34 1027.69 1027.08 1026.27 1025.67 1024.87 1024.06 1023.41 1022.56 1021.12 1020.01 1017.51 1017.11 1017.87 1016.79 1016.87 1017.35
1029.03 1028.64 1028.24 1027.90 1027.67 1027.45 1027.56 1027.89 1027.85 1027.89 1028.57 1029.33 1028.91 1028.30 1027.87 1027.80 1027.98 1028.46 1028.48 1029.09 1029.60 1029.88 1030.08 1030.10 1030.05 1029.65 1029.19 1028.44 1027.85 1027.23 1026.83 1025.92 1025.29 1024.74 1024.80 1024.40 1023.38 1021.62 1020.18 1019.11 1018.89 1018.81 1018.62 1018.72
1028.91 1028.59 1028.25 1027.97 1027.70 1027.53 1027.70 1028.18 1028.10 1028.03 1028.16 1029.03 1029.68 1029.17 1028.56 1028.67 1028.82 1028.99 1029.34 1029.61 1029.87 1030.23 1030.36 1030.33 1029.93 1029.50 1029.37 1029.00 1028.28 1028.17 1027.31 1026.63 1026.27 1025.45 1025.50 1024.79 1023.57 1022.55 1021.63 1020.80 1020.47 1020.23 1019.94 1019.93
1028.65 1028.32 1028.05 1027.87 1027.79 1027.98 1028.19 1028.44 1028.41 1028.21 1028.43 1029.43 1030.16 1029.79 1028.94 1028.71 1028.99 1029.29 1029.43 1029.84 1030.14 1029.99 1030.27 1030.14 1029.81 1029.25 1029.16 1029.02 1028.48 1027.43 1027.06 1026.83 1026.67 1026.09 1025.44 1024.93 1024.14 1023.61 1022.66 1021.93 1021.59 1021.28 1021.02 1020.92
1028.16 1027.82 1027.73 1027.78 1027.80 1027.95 1028.17 1028.25 1028.03 1028.33 1028.93 1029.63 1030.70 1030.69 1029.78 1029.36 1029.81 1029.91 1029.64 1030.05 1030.03 1030.01 1030.08 1029.86 1029.67 1029.13 1028.80 1028.69 1028.10 1027.26 1026.71 1026.56 1026.65 1026.57 1025.91 1025.50 1024.80 1024.12 1023.55 1023.00 1022.66 1022.33 1022.19 1022.23
1027.80 1027.61 1027.69 1028.01 1028.22 1028.65 1028.67 1028.23 1028.33 1028.65 1029.35 1030.27 1031.33 1032.12 1031.29 1030.28 1030.47 1030.44 1030.15 1029.97 1030.27 1030.21 1030.14 1029.93 1029.73 1029.22 1028.60 1028.40 1027.91 1027.22 1026.62 1026.48 1026.46 1026.39 1026.06 1025.55 1025.07 1024.68 1024.29 1024.02 1023.81 1023.59 1023.46 1023.35
1027.83 1027.86 1028.21 1029.05 1029.36 1028.79 1028.61 1028.52 1028.86 1029.21 1029.72 1030.36 1031.95 1032.44 1032.07 1031.61 1031.13 1030.88 1030.78 1030.14 1030.25 1030.26 1030.53 1029.97 1029.81 1029.24 1028.88 1028.17 1027.56 1026.97 1026.37 1026.03 1026.05 1026.11 1026.02 1025.75 1025.42 1025.25 1025.00 1024.81 1024.63 1024.48 1024.41 1024.31
1028.74 1029.47 1029.91 1029.78 1029.23 1029.23 1029.36 1029.71 1030.15 1030.75 1031.54 1031.98 1032.33 1032.46 1032.21 1031.55 1031.53 1031.28 1030.90 1030.59 1030.22 1030.40 1030.65 1030.33 1030.36 1030.00 1029.40 1028.27 1027.45 1026.81 1026.25 1025.81 1025.75 1025.59 1025.53 1025.49 1025.39 1025.37 1025.19 1025.09 1024.96 1024.78 1024.65 1024.91
1030.37 1030.50 1030.46 1030.06 1029.75 1029.90 1030.37 1031.29 1031.50 1032.02 1032.79 1032.54 1032.59 1032.44 1032.19 1031.67 1031.17 1031.01 1030.48 1030.32 1030.07 1030.54 1030.63 1030.73 1030.81 1030.61 1029.43 1028.25 1027.30 1026.71 1026.27 1025.85 1025.68 1025.54 1025.45 1025.27 1025.17 1025.24 1025.33 1025.39 1025.51 1025.67 1025.79 1025.81
1030.19 1030.25 1030.25 1030.51 1031.02 1031.42 1032.00 1032.53 1032.68 1033.01 1033.11 1032.73 1032.46 1032.37 1032.00 1031.57 1031.19 1030.85 1030.49 1030.21 1030.69 1030.45 1031.04 1031.71 1031.76 1030.42 1029.29 1027.66 1026.91 1026.61 1026.17 1025.87 1025.65 1025.39 1025.31 1025.25 1025.20 1025.13 1025.37 1025.66 1025.80 1025.87 1026.14 1026.37
1030.09 1030.42 1031.35 1031.57 1032.18 1032.39 1032.60 1033.04 1032.87 1032.78 1032.75 1032.57 1032.34 1032.09 1031.91 1031.44 1031.14 1030.74 1030.65 1030.83 1030.83 1031.53 1031.92 1032.46 1031.72 1030.30 1029.58 1028.40 1027.41 1026.78 1026.15 1025.94 1025.81 1025.36 1025.14 1025.25 1025.27 1025.37 1025.45 1025.73 1026.11 1026.35 1026.67 1026.84
1030.24 1030.73 1031.95 1032.15 1032.25 1032.30 1032.41 1032.55 1032.59 1032.25 1032.11 1032.13 1032.05 1031.83 1031.80 1031.46 1031.33 1031.47 1031.42 1031.49 1032.19 1032.67 1032.94 1032.47 1031.44 1030.51 1029.73 1028.70 1027.94 1027.31 1026.73 1026.28 1026.13 1025.79 1025.48 1025.34 1025.45 1025.65 1026.00 1026.18 1026.35 1026.54 1026.83 1027.09
1030.44 1031.34 1032.16 1032.35 1032.43 1032.41 1032.39 1032.37 1032.21 1031.76 1031.78 1031.81 1031.93 1031.91 1031.97 1032.23 1032.49 1032.49 1032.98 1032.87 1033.33 1033.62 1032.99 1032.17 1031.53 1030.76 1029.97 1029.08 1028.30 1027.75 1027.33 1026.94 1026.77 1026.44 1026.02 1025.71 1025.77 1025.98 1026.21 1026.36 1026.50 1026.71 1026.89 1027.05
1031.22 1032.13 1032.22 1032.30 1032.37 1032.43 1032.35 1032.14 1031.87 1031.59 1031.75 1031.80 1031.80 1032.33 1032.78 1032.87 1033.22 1033.62 1033.71 1033.79 1033.66 1033.14 1032.64 1031.93 1031.53 1031.11 1030.37 1029.32 1028.55 1028.15 1027.82 1027.49 1027.14 1026.86 1026.58 1026.48 1026.27 1026.33 1026.57 1026.71 1026.67 1026.70 1026.79 1026.94
Wind_Speed
31 33 34 34 32 28 9 4 6 10 8 9 4 5 5 7 13 9 8 5 7 4 6 5 4 5 5 12 12 7 4 4 5 8 23 8 5 10 9 3 8 4 2 10
30 32 34 35 33 20 2 5 2 8 5 7 4 5 8 8 11 9 5 6 6 3 4 4 6 6 4 12 12 8 7 4 9 10 4 6 8 7 13 6 3 7 3 7
30 32 35 36 35 24 5 6 5 7 9 3 8 5 9 4 5 10 5 4 4 4 4 3 3 9 6 14 12 12 2 2 5 9 9 10 16 17 10 4 5 10 11 11
30 32 34 36 37 26 6 6 2 2 4 7 9 10 4 6 5 5 9 7 6 3 5 6 5 4 10 5 6 2 2 4 7 12 14 14 21 25 18 13 11 12 19 20
29 31 33 35 38 24 9 7 5 5 3 4 11 8 4 10 4 6 4 5 1 4 3 4 7 7 3 6 4 2 1 4 5 16 17 18 12 12 15 16 19 14 20 21
27 28 30 31 34 15 6 3 3 6 5 4 5 4 5 7 5 6 6 4 4 3 4 7 13 9 8 8 3 2 0 3 3 11 7 8 10 4 8 12 4 3 4 5
24 25 27 28 29 16 3 2 3 6 4 5 5 5 4 8 7 2 5 4 3 6 12 8 4 3 5 5 0 5 3 3 3 6 2 3 8 8 10 11 9 5 8 11
22 24 25 26 26 23 5 2 5 4 4 2 5 8 4 4 6 5 4 9 4 9 5 5 7 7 7 7 3 4 0 2 4 3 3 8 4 8 10 8 14 14 13 14
22 22 22 22 24 23 4 3 2 5 6 4 4 3 3 2 5 7 2 7 5 7 4 4 4 2 3 5 8 7 9 5 4 3 3 4 6 16 17 13 10 11 16 16
20 21 21 21 21 20 5 3 4 5 6 3 3 4 2 3 3 2 5 7 8 5 4 4 3 3 2 3 5 7 8 3 4 7 4 4 6 20 19 4 7 20 15 17
20 20 20 19 19 19 6 2 4 4 4 3 4 4 3 2 3 1 5 4 5 4 5 3 3 2 3 4 5 5 4 5 4 4 3 5 12 19 5 4 12 14 16 13
17 18 18 17 16 17 6 3 3 2 5 3 2 2 3 3 2 4 3 3 1 1 1 1 1 2 3 3 5 5 4 1 5 4 5 11 15 19 13 13 16 19 13 6
16 17 17 15 14 14 6 1 4 4 4 5 5 4 4 4 3 3 4 2 2 2 2 1 0 3 1 2 4 4 4 4 3 7 5 15 20 19 18 13 6 17 18 16
15 15 15 13 12 11 7 3 3 5 3 5 5 4 3 3 8 7 3 4 4 4 2 2 1 2 1 3 4 4 3 8 6 5 5 15 15 24 15 18 14 19 21 17
16 15 14 12 10 8 3 1 2 1 5 4 3 5 7 7 7 8 8 7 4 3 3 2 1 2 3 3 3 3 7 7 5 3 9 5 9 17 17 13 16 16 17 18
17 15 12 10 9 5 3 4 3 3 3 5 2 3 1 2 5 7 6 4 3 3 3 1 2 3 2 3 3 3 5 8 12 5 7 8 9 12 12 13 13 14 13 13
17 14 9 7 5 3 4 4 3 3 3 4 3 4 4 1 2 1 1 3 2 2 2 1 1 2 1 1 2 6 5 6 7 7 7 6 12 9 14 14 12 14 13 13
17 10 4 1 2 2 3 3 1 2 4 3 3 4 4 6 3 3 2 3 2 3 1 1 2 4 1 2 11 8 6 3 5 7 8 6 6 6 9 9 9 12 11 12
13 4 5 4 5 4 2 1 6 2 4 4 4 2 4 5 3 1 4 1 3 1 2 2 2 3 3 4 12 10 6 3 0 4 4 7 8 9 10 9 10 10 8 10
1 3 4 4 3 4 3 5 4 5 4 5 3 0 3 3 3 3 3 2 2 2 3 2 3 2 6 11 13 9 6 4 4 3 3 4 5 7 7 6 5 6 5 7
5 4 2 3 6 3 3 3 4 3 5 4 2 2 2 2 2 2 1 2 2 4 4 3 4 5 10 16 13 10 7 3 3 3 1 2 2 3 4 6 6 6 8 7
3 2 2 2 4 4 6 3 4 5 1 4 2 3 2 4 1 1 1 2 3 3 3 3 6 4 15 14 11 10 8 5 1 2 4 2 2 1 4 4 5 6 5 6
2 1 3 5 4 10 5 5 4 4 4 3 4 4 1 4 1 2 2 4 1 1 3 3 4 10 9 14 7 6 7 8 7 2 1 2 1 2 4 4 3 5 7 5
3 4 6 4 4 1 0 1 2 3 3 3 2 2 1 2 4 1 4 2 4 4 4 3 5 10 11 10 6 3 5 3 5 6 2 2 2 4 4 4 5 5 5 4
3 4 3 3 1 0 2 2 2 3 1 1 3 2 1 2 3 4 3 5 4 3 3 3 6 13 10 9 8 8 9 8 7 7 3 2 5 6 5 5 5 5 5 5
3 5 3 2 0 1 1 2 3 2 1 0 1 2 2 5 3 4 4 3 4 2 4 5 7 9 9 9 7 6 3 3 3 4 6 4 2 4 4 4 4 4 4 4
4 2 1 2 1 2 2 2 3 1 1 1 2 4 2 1 4 3 2 1 3 4 6 5 5 6 9 8 6 6 6 5 4 2 4 7 4 2 2 2 3 4 5 4
Wind_Direction
359 354 350 351 350 345 36 73 54 328 350 54 41 43 6 47 0 16 52 71 57 54 347 27 89 59 35 19 12 2 3 279 279 281 301 330 29 21 48 44 305 262 223 261
1 357 353 350 354 1 63 83 12 316 29 91 50 56 68 84 45 28 61 45 54 359 34 48 63 25 351 20 9 358 348 322 317 304 359 32 40 355 1 287 206 250 198 274
3 1 356 354 352 354 86 78 44 345 26 52 110 109 32 81 39 45 40 16 60 34 46 338 8 2 342 333 323 327 32 287 259 266 296 314 303 312 328 292 284 320 278 311
5 4 0 356 355 353 87 37 66 235 4 11 63 70 29 27 33 58 15 26 52 38 39 343 355 272 312 285 280 357 145 242 246 268 282 299 287 289 290 264 261 258 287 286
8 6 5 2 359 348 74 100 103 13 46 24 53 28 30 40 20 31 37 51 12 72 126 204 278 290 261 247 321 306 335 264 277 284 275 266 275 298 282 267 262 254 266 264
10 8 8 8 7 12 67 353 48 98 346 24 64 20 38 37 12 69 88 3 4 328 289 275 264 244 249 242 262 279 174 324 319 280 277 291 294 241 277 277 210 269 259 312
10 11 9 10 14 29 82 31 86 69 31 59 54 39 75 42 15 8 13 22 27 266 309 300 300 263 269 239 217 175 199 301 230 278 238 247 242 9 321 319 281 3 311 306
11 11 10 8 11 17 65 11 78 90 76 81 72 55 34 12 343 356 10 1 280 299 355 19 7 350 9 327 31 196 22 2 289 290 246 280 325 16 341 346 301 302 323 326
10 10 10 9 8 11 63 55 87 92 117 329 280 80 27 31 343 340 322 328 335 22 52 53 43 329 313 324 320 283 339 252 254 255 249 272 22 338 324 304 254 358 332 325
8 9 9 10 10 10 42 19 38 83 104 271 73 60 51 63 33 297 307 344 350 30 16 53 34 310 322 304 304 312 318 321 275 294 272 287 1 330 317 225 310 319 326 313
6 6 8 9 8 9 35 281 5 107 104 308 34 27 50 54 77 115 286 32 5 15 45 43 343 319 298 325 268 282 297 332 316 314 316 330 338 331 320 273 295 301 304 304
359 3 6 7 7 9 33 17 354 3 86 177 310 331 327 126 143 142 12 156 289 181 78 45 337 312 333 317 290 320 342 139 305 294 280 295 312 304 304 294 287 299 285 299
355 359 2 3 8 13 50 2 316 40 55 11 43 359 346 8 69 136 106 297 274 119 76 94 237 290 189 285 265 294 292 43 274 335 331 327 318 321 297 291 339 336 66 42
350 354 356 360 6 11 39 56 309 78 100 103 288 349 12 78 67 54 76 110 43 84 57 58 14 287 245 284 293 284 316 316 318 261 316 307 343 341 32 70 64 51 63 59
347 351 351 352 355 4 67 69 358 103 118 158 258 312 13 53 78 62 63 71 70 61 71 49 2 284 294 300 291 337 337 340 338 320 2 337 316 11 24 41 64 63 65 63
340 342 340 340 343 15 66 29 344 5 94 86 73 299 42 85 71 71 68 82 88 82 75 358 282 261 330 340 335 326 351 19 2 14 6 334 0 9 10 38 73 81 77 79
330 328 323 330 345 55 92 171 222 6 79 72 28 352 327 276 66 31 42 67 63 94 121 328 276 282 65 277 332 289 327 6 19 16 311 8 16 12 18 24 43 63 64 64
329 320 311 326 27 31 27 320 242 90 85 69 72 302 13 9 0 344 10 39 41 357 24 308 352 310 333 18 332 318 305 343 31 10 357 359 309 15 17 21 23 43 45 55
336 79 119 68 37 36 293 46 72 61 117 100 71 78 285 356 343 302 342 50 35 293 32 17 23 299 10 341 334 331 328 324 41 24 347 335 0 359 15 31 29 46 38 52
100 45 47 24 315 287 359 6 18 17 351 36 75 60 309 44 7 323 351 21 37 28 287 16 30 290 342 342 332 329 316 6 130 143 23 8 358 7 12 33 37 55 59 66
38 26 67 257 310 40 34 32 56 346 30 10 314 170 299 317 5 292 149 293 318 49 330 63 352 355 337 326 333 339 334 319 65 95 131 244 288 351 36 37 41 44 44 44
183 208 282 308 34 36 61 9 4 46 7 320 334 273 237 295 311 323 303 1 31 37 328 38 356 299 309 337 332 336 342 344 268 140 144 210 248 76 75 68 73 67 59 59
105 97 46 46 340 37 44 344 332 354 331 324 335 333 294 332 8 275 344 67 127 14 47 55 277 291 328 332 354 350 348 11 360 294 156 189 270 83 117 109 100 90 87 68
61 53 19 90 356 43 295 268 301 262 218 287 289 275 300 303 343 329 56 0 64 40 30 21 290 311 325 308 334 289 297 338 337 1 226 306 9 46 64 131 106 101 100 101
65 61 45 48 83 90 222 230 309 256 222 259 327 306 353 308 23 29 24 34 54 51 337 263 300 314 317 310 335 346 33 64 42 336 34 46 77 90 80 86 113 118 121 124
67 53 55 341 11 306 268 242 260 242 223 340 249 328 30 30 47 38 14 47 32 286 252 271 309 315 320 324 335 341 35 30 75 16 343 16 44 122 145 130 138 150 155 162
57 18 51 197 229 236 267 223 255 254 357 331 56 51 30 29 47 44 45 130 227 250 294 291 287 297 310 319 343 12 28 35 30 35 33 15 7 96 139 214 239 210 208 210